Weather in Kalynivka

Ukraine / Zhytomyr Region     51°01′28″N   27°26′20″E
temp.,
°C
wind,
m/s
gust,
m/s
humid.,
%
clouds,
%
prec.,
mm/h
press.,
hPa
HPBL,
m
25 february, thu
thu2523:00+3w2399100 0.0 103260
02:00+3w2599100 0.1 1032108
05:00+5w3799100 0.3 1030159
08:00+5w3799100 0.3 1030168
11:00+6w3798100 0.0 1030250
14:00+8w369399 0.0 1030374
17:00+5w259781 0.0 1028131
20:00+3w239644 0.0 102829
26 february, fri
fri2623:00+3sw23950 0.0 102751
02:00+2sw36920 0.0 1026143
05:00+2wsw310930 0.0 1024212
08:00+3w410930 0.0 1023266
11:00+7w48882 0.0 1022361
14:00+9w498927 0.0 1021489
17:00+8w41192100 0.0 1020710
20:00+6wnw41290100 0.0 1020648
27 february, sat
sat2723:00+5wnw41288100 0.0 1019663
02:00+3wnw5138897 0.0 1019696
05:00+3wnw5118595 0.1 10181016
08:00+3wnw6128498 0.1 1017939
11:00+3wnw61196100 0.9 1017706
14:00+4wnw71181100 1.4 10181115
17:00+2nw61184100 0.3 10191149
20:00+1nnw5109297 0.4 1021929
28 february, sun
sun2823:00+1nnw498898 0.1 1023656
02:000nnw499183 0.1 1025689
05:000nw4991100 0.3 1025708
08:000nw5990100 0.4 1027670
11:00+1nnw4780100 0.3 1027833
14:00+2nw4773100 0.3 10281011
17:00+1nw4777100 0.1 1027880
20:00−1nnw2886100 0.1 1029427
1 march, mon
mon123:00−1nw2690100 0.0 1030227
02:00−2nnw229482 0.0 103267
05:00−2nw22959 0.0 103383
08:00+1wnw249898 0.8 1031167
11:00+2n1297100 0.1 1032184
14:00+2nw1192100 0.1 1033178
17:00+2nw1290100 0.1 103466
20:00+1nw2289100 0.1 103570